Weather History for Antigo, WI

Change the Weather History Date:

Tuesday, January 29, 2013

  Actual Average Record
Temperature  
Mean Temperature 32 °F -  
Max Temperature 36 °F 20 °F 40 °F (1989)
Min Temperature 28 °F 2 °F -30 °F (1951)
Degree Days  
Heating Degree Days 33    
Moisture  
Dew Point 32 °F    
Average Humidity 97    
Maximum Humidity 100    
Minimum Humidity 89    
Precipitation  
Precipitation 0.06 in - - ()
Sea Level Pressure  
Sea Level Pressure 29.54 in    
Wind  
Wind Speed 11 mph (ENE)    
Max Wind Speed 18 mph    
Max Gust Speed 23 mph    
Visibility 5 miles    
Events Fog    
Averages and records for this station are not official NWS values.
T = Trace of Precipitation, MM = Missing Value Source: NWS Daily Summary

Daily Weather History Graph

Daily Weather History Graph

Search for Another Location

Airport:

Trip Planner

Search our weather history database for the weather conditions in past years. The results will help you decide how hot, cold, wet, or windy it might be!

Date:

Astronomy

Jan. 29, 2013 Rise Set
Actual Time 7:19 AM CST 5:00 PM CST
Civil Twilight 6:48 AM CST 5:31 PM CST
Nautical Twilight 6:12 AM CST 6:07 PM CST
Astronomical Twilight 5:38 AM CST 6:41 PM CST
Moon 8:07 PM CST (1/29) 8:07 AM CST (1/29)
Length of Visible Light 10h 43m
Length of Day
9h 40m
Waning Gibbous, 93% of the Moon is Illuminated
Jan 29
Waning Gibbous
Feb 3
Last Quarter
Feb 10
New
Feb 17
First Quarter
Feb 25
Full

Hourly Weather History & Observations

Time (CST) Temp. Windchill Dew Point Humidity Pressure Visibility Wind Dir Wind Speed Gust Speed Precip Events Conditions
12:15 AM 28.6 °F 17.2 °F 28.0 °F 98% 29.75 in 4.0 mi SSE 15.0 mph - N/A   Overcast
12:35 AM 28.4 °F 17.0 °F 28.0 °F 99% 29.74 in 4.0 mi SE 15.0 mph - N/A   Overcast
12:55 AM 28.6 °F 18.7 °F 28.4 °F 99% 29.71 in 2.5 mi SE 11.5 mph - N/A   Overcast
1:15 AM 29.7 °F 18.2 °F 29.3 °F 99% 29.72 in 2.0 mi SSE 16.1 mph - 0.01 in   Overcast
1:35 AM 30.2 °F 19.3 °F 29.8 °F 99% 29.69 in 3.0 mi SE 15.0 mph - 0.03 in   Overcast
1:55 AM 30.6 °F 20.2 °F 30.0 °F 98% 29.69 in 5.0 mi SSE 13.8 mph - 0.03 in   Overcast
2:15 AM 31.1 °F 19.3 °F 30.6 °F 98% 29.65 in 5.0 mi SE 18.4 mph 23.0 mph N/A   Overcast
2:35 AM 31.6 °F 20.4 °F 30.7 °F 96% 29.66 in 5.0 mi SE 17.3 mph 21.9 mph N/A   Overcast
2:55 AM 31.1 °F 21.9 °F 30.4 °F 97% 29.64 in 7.0 mi SE 11.5 mph - N/A   Overcast
3:15 AM 31.5 °F 22.3 °F 30.9 °F 98% 29.64 in 7.0 mi SE 11.5 mph - N/A   Overcast
3:35 AM 31.3 °F 23.3 °F 30.9 °F 99% 29.63 in 5.0 mi SSE 9.2 mph - 0.01 in   Overcast
3:55 AM 31.3 °F 23.3 °F 31.1 °F 99% 29.60 in 5.0 mi SE 9.2 mph - 0.01 in   Overcast
4:15 AM 31.5 °F 24.2 °F 31.1 °F 99% 29.60 in 7.0 mi SE 8.1 mph - N/A   Overcast
4:35 AM 31.6 °F 28.3 °F 31.5 °F 99% 29.62 in 5.0 mi SSE 3.5 mph - N/A   Overcast
5:15 AM 31.8 °F 26.2 °F 31.8 °F 100% 29.59 in 0.8 mi SE 5.8 mph - N/A   Overcast
5:35 AM 31.8 °F 24.6 °F 31.8 °F 100% 29.55 in 0.5 mi SE 8.1 mph - 0.01 in   Overcast
5:55 AM 31.8 °F 25.4 °F 31.8 °F 100% 29.53 in 0.8 mi SE 6.9 mph - 0.01 in   Overcast
6:15 AM 32.0 °F 28.7 °F 32.0 °F 100% 29.54 in 0.2 mi SE 3.5 mph - N/A   Overcast
6:35 AM 31.8 °F 25.4 °F 31.8 °F 100% 29.53 in 0.2 mi SE 6.9 mph - 0.01 in   Overcast
6:55 AM 32.0 °F 25.6 °F 32.0 °F 100% 29.52 in 0.5 mi SE 6.9 mph - 0.01 in   Overcast
7:15 AM 32.0 °F 24.8 °F 32.0 °F 100% 29.52 in 0.2 mi SE 8.1 mph - N/A Fog Fog
7:35 AM 32.0 °F 25.6 °F 32.0 °F 100% 29.52 in 0.2 mi SE 6.9 mph - N/A Fog Fog
7:55 AM 32.0 °F 24.8 °F 32.0 °F 100% 29.50 in 0.8 mi SE 8.1 mph - N/A   Overcast
8:15 AM 32.0 °F 24.8 °F 32.0 °F 100% 29.51 in 0.5 mi SE 8.1 mph - N/A Fog Fog
8:35 AM 32.0 °F 25.6 °F 32.0 °F 100% 29.51 in 0.2 mi SSE 6.9 mph - N/A Fog Fog
8:55 AM 32.0 °F 25.6 °F 32.0 °F 100% 29.50 in 0.2 mi SSE 6.9 mph - N/A Fog Fog
9:15 AM 32.0 °F 24.8 °F 32.0 °F 100% 29.50 in 0.2 mi SSE 8.1 mph - N/A Fog Fog
9:35 AM 32.2 °F 26.7 °F 32.2 °F 100% 29.49 in 0.2 mi SSE 5.8 mph - N/A Fog Fog
9:55 AM 32.4 °F 25.3 °F 32.4 °F 100% 29.49 in 0.2 mi South 8.1 mph - N/A Fog Fog
10:15 AM 33.4 °F 25.4 °F 33.4 °F 100% 29.46 in 0.2 mi SSE 10.4 mph - N/A Fog Fog
10:35 AM 32.9 °F 25.3 °F 32.9 °F 100% 29.47 in 0.2 mi SSE 9.2 mph - N/A Fog Fog
10:55 AM 33.6 °F 25.6 °F 33.6 °F 100% 29.49 in 0.2 mi South 10.4 mph - N/A Fog Fog
11:15 AM 33.8 °F 27.0 °F 33.8 °F 100% 29.49 in 0.2 mi SSW 8.1 mph - N/A Fog Fog
11:35 AM 33.8 °F 27.0 °F 33.8 °F 100% 29.50 in 0.2 mi SSW 8.1 mph - N/A Fog Fog
11:55 AM 34.2 °F 29.0 °F 34.2 °F 100% 29.49 in 0.2 mi SW 5.8 mph - N/A Fog Fog
12:15 PM 34.9 °F 27.7 °F 34.9 °F 100% 29.49 in 0.2 mi West 9.2 mph - N/A Fog Fog
12:35 PM 35.8 °F 29.4 °F 35.8 °F 100% 29.48 in 0.2 mi West 8.1 mph - N/A Fog Fog
12:55 PM 36.5 °F 31.8 °F 36.5 °F 100% 29.48 in 0.5 mi West 5.8 mph - N/A Fog Fog
1:15 PM 36.5 °F 31.0 °F 36.5 °F 100% 29.48 in 2.5 mi West 6.9 mph - N/A   Overcast
1:35 PM 36.0 °F 30.3 °F 36.0 °F 100% 29.48 in 3.0 mi NW 6.9 mph - N/A   Overcast
1:55 PM 35.6 °F 27.1 °F 35.6 °F 100% 29.48 in 2.0 mi WNW 12.7 mph - N/A   Overcast
2:15 PM 35.2 °F 27.1 °F 35.2 °F 100% 29.48 in 1.0 mi WNW 11.5 mph - N/A   Overcast
2:35 PM 35.1 °F 26.9 °F 35.1 °F 100% 29.49 in 2.5 mi WNW 11.5 mph - N/A   Overcast
2:55 PM 35.1 °F 26.9 °F 34.9 °F 99% 29.50 in 3.0 mi NW 11.5 mph 16.1 mph N/A   Overcast
3:15 PM 34.9 °F 27.7 °F 34.2 °F 97% 29.52 in 10.0 mi NW 9.2 mph - N/A   Overcast
3:35 PM 34.5 °F 26.7 °F 33.6 °F 97% 29.51 in 10.0 mi NNW 10.4 mph - N/A   Overcast
3:55 PM 33.8 °F 27.0 °F 33.1 °F 97% 29.51 in 10.0 mi NNW 8.1 mph - N/A   Overcast
4:15 PM 33.8 °F 25.8 °F 32.9 °F 96% 29.52 in 10.0 mi NNW 10.4 mph - N/A   Overcast
4:35 PM 33.3 °F 27.9 °F 32.5 °F 97% 29.52 in 10.0 mi North 5.8 mph - N/A   Overcast
4:55 PM 33.1 °F 24.9 °F 32.2 °F 96% 29.52 in 10.0 mi NNW 10.4 mph - N/A   Overcast
5:15 PM 32.9 °F 25.9 °F 32.2 °F 97% 29.54 in 10.0 mi NNW 8.1 mph - N/A   Overcast
5:35 PM 32.9 °F 25.3 °F 32.0 °F 96% 29.53 in 10.0 mi NNW 9.2 mph - N/A   Overcast
5:55 PM 32.5 °F 23.2 °F 31.6 °F 96% 29.52 in 10.0 mi North 12.7 mph - N/A   Overcast
6:15 PM 32.5 °F 23.2 °F 31.1 °F 94% 29.53 in 10.0 mi North 12.7 mph - N/A   Overcast
6:35 PM 32.2 °F 23.2 °F 31.1 °F 96% 29.54 in 10.0 mi North 11.5 mph - N/A   Overcast
6:55 PM 32.2 °F 21.8 °F 30.9 °F 95% 29.53 in 10.0 mi North 15.0 mph - N/A   Overcast
7:15 PM 32.2 °F 22.3 °F 30.6 °F 94% 29.54 in 10.0 mi North 13.8 mph - N/A   Overcast
7:35 PM 32.0 °F 22.5 °F 30.6 °F 94% 29.52 in 10.0 mi North 12.7 mph - N/A   Overcast
7:55 PM 32.0 °F 21.2 °F 30.0 °F 92% 29.52 in 10.0 mi North 16.1 mph - N/A   Overcast
8:15 PM 32.0 °F 22.5 °F 29.8 °F 92% 29.51 in 10.0 mi North 12.7 mph 17.3 mph N/A   Overcast
8:35 PM 32.0 °F 23.6 °F 29.8 °F 92% 29.54 in 10.0 mi North 10.4 mph 17.3 mph N/A   Overcast
8:55 PM 32.0 °F 20.8 °F 29.8 °F 92% 29.53 in 10.0 mi North 17.3 mph - N/A   Overcast
9:15 PM 31.8 °F 20.6 °F 29.3 °F 90% 29.54 in 10.0 mi North 17.3 mph 20.7 mph N/A   Overcast
9:35 PM 31.5 °F 20.9 °F 29.1 °F 91% 29.53 in 10.0 mi North 15.0 mph - N/A   Overcast
9:55 PM 31.1 °F 20.1 °F 28.8 °F 91% 29.52 in 10.0 mi North 16.1 mph 20.7 mph N/A   Overcast
10:15 PM 31.1 °F 19.7 °F 28.4 °F 90% 29.53 in 10.0 mi North 17.3 mph 20.7 mph N/A   Overcast
10:35 PM 31.1 °F 20.5 °F 28.2 °F 89% 29.55 in 10.0 mi North 15.0 mph 19.6 mph N/A   Overcast
10:55 PM 30.9 °F 19.1 °F 28.2 °F 90% 29.52 in 10.0 mi North 18.4 mph 23.0 mph N/A   Overcast
11:15 PM 30.9 °F 21.2 °F 28.4 °F 90% 29.52 in 10.0 mi North 12.7 mph 17.3 mph N/A   Overcast
11:35 PM 30.9 °F 21.7 °F 28.0 °F 89% 29.52 in 10.0 mi North 11.5 mph 19.6 mph N/A   Overcast
11:55 PM 30.9 °F 19.1 °F 28.4 °F 90% 29.53 in 10.0 mi North 18.4 mph - N/A   Overcast